Pittsburgh Allegheny Co., PA

11:37 PM EDT on May 28, 2017 (GMT -0400)
Allegheny County

Weather History for KAGC - October, 2013

Change the Weather History Date:

Monday, October 14, 2013

  Actual Average Record
Temperature  
Mean Temperature 58 °F -  
Max Temperature 61 °F 61 °F 82 °F (1989)
Min Temperature 57 °F 42 °F 26 °F (1988)
Degree Days  
Heating Degree Days 6    
Growing Degree Days 8 (Base 50)    
Moisture  
Dew Point 56 °F    
Average Humidity 92    
Maximum Humidity 100    
Minimum Humidity 82    
Precipitation  
Precipitation 0.04 in - - ()
Sea Level Pressure  
Sea Level Pressure 30.28 in    
Wind  
Wind Speed 1 mph (North)    
Max Wind Speed 8 mph    
Max Gust Speed -    
Visibility 8 miles    
Events Rain    
Averages and records for this station are not official NWS values.
T = Trace of Precipitation, MM = Missing Value Source: NWS Daily Summary

Daily Weather History Graph

Daily Weather History Graph

Search for Another Location

Airport or City:

Trip Planner

Search our weather history database for the weather conditions in past years. The results will help you decide how hot, cold, wet, or windy it might be!

Date:

Astronomy

Oct. 14, 2013 Rise Set
Actual Time 7:29 AM EDT 6:40 PM EDT
Civil Twilight 7:02 AM EDT 7:08 PM EDT
Nautical Twilight 6:30 AM EDT 7:39 PM EDT
Astronomical Twilight 5:59 AM EDT 8:11 PM EDT
Moon 4:10 PM EDT (10/14) 2:43 AM EDT (10/14)
Length of Visible Light 12h 06m
Length of Day
11h 11m
Waxing Gibbous, 79% of the Moon is Illuminated
Oct 14
Waxing Gibbous
Oct 18
Full
Oct 26
Last Quarter
Nov 3
New
Nov 10
First Quarter

Hourly Weather History & Observations

Time (EDT) Temp. Dew Point Humidity Pressure Visibility Wind Dir Wind Speed Gust Speed Precip Events Conditions
12:53 AM 60.1 °F 57.0 °F 90% 30.27 in 10.0 mi Calm Calm - N/A   Overcast
1:53 AM 59.0 °F 57.0 °F 93% 30.27 in 10.0 mi Calm Calm - N/A   Overcast
2:53 AM 59.0 °F 57.0 °F 93% 30.27 in 10.0 mi Calm Calm - N/A   Overcast
3:53 AM 59.0 °F 57.0 °F 93% 30.27 in 10.0 mi Calm Calm - N/A   Overcast
4:53 AM 57.9 °F 57.0 °F 97% 30.27 in 10.0 mi Calm Calm - N/A   Overcast
5:15 AM 59.0 °F 57.2 °F 94% 30.27 in 10.0 mi Calm Calm - N/A   Overcast
5:38 AM 57.2 °F 55.4 °F 94% 30.26 in 10.0 mi Calm Calm - N/A   Overcast
5:53 AM 57.9 °F 55.9 °F 93% 30.27 in 10.0 mi Calm Calm - N/A   Overcast
6:53 AM 57.9 °F 55.9 °F 93% 30.29 in 10.0 mi Calm Calm - N/A   Overcast
7:14 AM 57.2 °F 57.2 °F 100% 30.27 in 10.0 mi Calm Calm - N/A   Overcast
7:42 AM 57.2 °F 55.4 °F 94% 30.28 in 10.0 mi Calm Calm - N/A   Overcast
7:53 AM 57.9 °F 55.9 °F 93% 30.29 in 10.0 mi Calm Calm - N/A   Overcast
8:53 AM 59.0 °F 57.0 °F 93% 30.31 in 10.0 mi Calm Calm - N/A   Overcast
9:53 AM 57.9 °F 57.0 °F 97% 30.32 in 4.0 mi North 4.6 mph - 0.00 in   Overcast
10:08 AM 57.2 °F 57.2 °F 100% 30.31 in 0.8 mi North 3.5 mph - 0.00 in Rain Light Rain
10:27 AM 57.2 °F 57.2 °F 100% 30.31 in 0.8 mi NNW 6.9 mph - 0.02 in Rain Light Rain
10:50 AM 57.2 °F 57.2 °F 100% 30.31 in 2.5 mi NNW 5.8 mph - 0.03 in Rain Light Rain
10:53 AM 57.0 °F 55.9 °F 96% 30.32 in 2.5 mi NNW 5.8 mph - 0.03 in Rain Light Rain
11:13 AM 57.2 °F 55.4 °F 94% 30.31 in 6.0 mi North 8.1 mph - 0.00 in   Overcast
11:29 AM 57.2 °F 55.4 °F 94% 30.31 in 6.0 mi North 4.6 mph - 0.00 in   Overcast
11:53 AM 57.9 °F 55.9 °F 93% 30.32 in 3.0 mi North 8.1 mph - 0.01 in Rain Light Rain
12:53 PM 59.0 °F 57.0 °F 93% 30.30 in 10.0 mi Variable 3.5 mph - 0.00 in   Overcast
1:53 PM 59.0 °F 57.0 °F 93% 30.29 in 10.0 mi NNW 3.5 mph - N/A   Overcast
2:50 PM 60.8 °F 55.4 °F 82% 30.26 in 10.0 mi Variable 4.6 mph - N/A   Overcast
2:53 PM 60.1 °F 55.9 °F 86% 30.27 in 10.0 mi Variable 3.5 mph - N/A   Overcast
3:53 PM 60.1 °F 57.0 °F 90% 30.26 in 10.0 mi NNW 4.6 mph - N/A   Overcast
4:53 PM 60.1 °F 57.0 °F 90% 30.25 in 10.0 mi Variable 3.5 mph - N/A   Overcast
5:53 PM 60.1 °F 55.9 °F 86% 30.26 in 10.0 mi NE 4.6 mph - N/A   Overcast
6:53 PM 60.1 °F 55.9 °F 86% 30.26 in 10.0 mi Calm Calm - N/A   Overcast
7:53 PM 59.0 °F 55.9 °F 90% 30.27 in 10.0 mi North 4.6 mph - N/A   Overcast
8:53 PM 59.0 °F 55.9 °F 90% 30.27 in 9.0 mi Calm Calm - N/A   Overcast
9:22 PM 59.0 °F 55.4 °F 88% 30.25 in 10.0 mi Calm Calm - N/A   Overcast
9:53 PM 59.0 °F 55.9 °F 90% 30.27 in 9.0 mi Calm Calm - N/A   Overcast
10:43 PM 59.0 °F 55.4 °F 88% 30.25 in 7.0 mi Calm Calm - N/A   Overcast
10:53 PM 59.0 °F 55.9 °F 90% 30.26 in 7.0 mi Calm Calm - N/A   Overcast
11:08 PM 59.0 °F 55.4 °F 88% 30.24 in 7.0 mi Calm Calm - N/A   Overcast
11:53 PM 59.0 °F 55.9 °F 90% 30.25 in 7.0 mi Calm Calm - N/A   Overcast